[[{"header":{"parameterUnit":"m.s-1","parameterCategory":1,"la1":30.2991,"la2":30.254,"lo1":-89.0895,"lo2":-89.0444,"dy":0.0017,"dx":0.0017,"nx":28,"ny":28,"refTime":"2024-06-02T21:00:00:Z","depth":0,"parameterNumber":2,"parameterNumberName":"U-component_of_WINDS"},"data":[0,0,0,0,0,0,0,0,0,0,0,0,0,0,0,0,0,0,0,0,0,0,0,0,0,0,0,0,0,0,0,0,0,0,0,0,0,0,0,0,0,0,0,0,0,0,0,0,0,0,0,0,0,0,0,0,0,0,-1.174,-1.1738,0,-1.1614,-1.1613,-1.1611,-1.1523,-1.1522,-1.1521,-1.1521,-1.1392,-1.1389,-1.1386,0,0,0,0,0,0,0,0,0,0,0,0,0,-1.1903,-1.19,-1.174,-1.1738,-1.1737,-1.1614,-1.1613,-1.1611,-1.1523,-1.1522,-1.1521,-1.152,-1.1392,-1.1389,-1.1386,0,0,0,0,0,0,0,0,0,0,0,0,0,-1.181,-1.1899,-1.174,-1.1678,-1.1671,-1.1615,-1.1613,-1.161,-1.1523,-1.1522,-1.1521,-1.152,-1.1394,-1.139,-1.1385,-1.1381,0,0,-1.1373,-1.1371,0,0,0,0,0,0,0,0,-1.1815,-1.1804,-1.1689,-1.1682,-1.1674,-1.1583,-1.1623,-1.1533,-1.1523,-1.1579,-1.152,-1.1519,-1.1456,-1.1447,-1.1425,-1.1375,-1.1369,-1.1372,-1.137,-1.1368,-1.1367,0,0,0,0,0,0,0,-1.1822,-1.1809,-1.169,-1.1687,-1.1678,-1.1656,-1.1642,-1.1605,-1.1525,-1.1574,-1.1567,-1.1554,-1.1452,-1.143,-1.1422,-1.1367,-1.1372,-1.1369,-1.1366,-1.1364,-1.1305,-1.1306,0,0,0,0,0,0,-1.1838,-1.1815,-1.1694,-1.1686,-1.1744,-1.1654,-1.1638,-1.1613,-1.1525,-1.1511,-1.1555,-1.155,-1.1437,-1.1427,-1.1417,-1.1404,-1.1368,-1.1364,-1.1362,-1.1304,-1.1305,-1.1306,0,0,0,0,0,0,-1.1842,-1.1828,-1.1699,-1.1749,-1.1731,-1.1652,-1.1625,-1.1611,-1.1589,-1.1511,-1.1496,-1.1547,-1.1436,-1.1423,-1.139,-1.1399,-1.1362,-1.1358,-1.1303,-1.1305,-1.1306,-1.1381,0,0,0,0,0,0,-1.1847,-1.183,-1.1828,-1.1749,-1.1728,-1.1675,-1.1626,-1.161,-1.1582,-1.1575,-1.1499,-1.1486,-1.1434,-1.1397,-1.1386,-1.1392,-1.1355,-1.1302,-1.1304,-1.1305,-1.1377,-1.1384,-1.1391,0,0,0,0,0,-1.1853,-1.1854,-1.1828,-1.1814,-1.1724,-1.1675,-1.1663,-1.1604,-1.1583,-1.158,-1.1529,-1.1488,-1.14,-1.1394,-1.1381,-1.1387,-1.1301,-1.1303,-1.1305,-1.1374,-1.1383,-1.1391,0,0,0,0,0,0,-1.1935,-1.1842,-1.1813,-1.1788,-1.174,-1.1661,-1.1654,-1.1616,-1.1573,-1.1568,-1.1497,-1.148,-1.1455,-1.1417,-1.1413,-1.1377,-1.1345,-1.1345,-1.1402,-1.141,-1.1417,-1.1426,-1.1352,0,0,0,0,0,-1.1951,-1.1919,-1.184,-1.1826,-1.1803,-1.1734,-1.171,-1.1669,-1.1617,-1.1596,-1.1543,-1.1494,-1.1455,-1.143,-1.139,-1.1372,-1.1353,-1.1369,-1.1376,-1.1382,-1.1382,-1.1368,-1.1374,-1.1313,-1.1313,-1.1313,0,0,-1.1982,-1.1927,-1.1912,-1.1841,-1.1799,-1.1768,-1.1717,-1.1686,-1.1662,-1.1591,-1.1557,-1.1517,-1.1457,-1.1431,-1.1417,-1.1399,-1.1395,-1.1385,-1.139,-1.1386,-1.1371,-1.1377,-1.1382,-1.1315,-1.1314,-1.1314,0,0,-1.2022,-1.1978,-1.1961,-1.192,-1.1857,-1.1811,-1.1807,-1.1733,-1.1703,-1.1668,-1.1613,-1.1584,-1.1519,-1.1478,-1.1449,-1.1474,-1.1434,-1.1463,-1.1499,-1.1486,-1.1491,-1.1495,-1.1503,-1.1507,-1.1464,-1.1464,-1.1464,0,-1.2068,-1.2019,-1.1957,-1.1929,-1.19,-1.1834,-1.1816,-1.1779,-1.1707,-1.1688,-1.1669,-1.1585,-1.154,-1.1503,-1.151,-1.1489,-1.1481,-1.1471,-1.1495,-1.1499,-1.1501,-1.1508,-1.1511,-1.1468,-1.1468,-1.1467,-1.1467,0,-1.2079,-1.2046,-1.204,-1.1971,-1.1941,-1.1918,-1.1852,-1.1829,-1.1791,-1.1746,-1.1711,-1.1655,-1.1602,-1.159,-1.1553,-1.1548,-1.1539,-1.1509,-1.1475,-1.1512,-1.1517,-1.1519,-1.1473,-1.1472,-1.1471,-1.147,0,0,-1.2167,-1.2064,-1.2063,-1.2031,-1.1957,-1.193,-1.1904,-1.1852,-1.1833,-1.1786,-1.1762,-1.1709,-1.168,-1.1647,-1.1604,-1.1594,-1.1616,-1.1565,-1.1562,-1.1575,-1.1607,-1.1629,-1.1633,-1.159,-1.159,-1.159,-1.1611,0,-1.2195,-1.2145,-1.2088,-1.2058,-1.2026,-1.1964,-1.1941,-1.1893,-1.1851,-1.1818,-1.1771,-1.1734,-1.17,-1.168,-1.1667,-1.1616,-1.1621,-1.1614,-1.1566,-1.1565,-1.1582,-1.1636,-1.1659,-1.1681,-1.1613,-1.1613,-1.1613,0,-1.2221,-1.2176,-1.2143,-1.2071,-1.2056,-1.2037,-1.1984,-1.1954,-1.1898,-1.1868,-1.1832,-1.1786,-1.1755,-1.1727,-1.1683,-1.168,-1.1657,-1.163,-1.1629,-1.1621,-1.1591,-1.1628,-1.1687,-1.169,-1.1616,-1.1616,-1.1616,0,-1.2287,-1.2219,-1.2189,-1.2164,-1.208,-1.2068,-1.2032,-1.1976,-1.1948,-1.1902,-1.1884,-1.1836,-1.1809,-1.1772,-1.1715,-1.17,-1.1677,-1.1644,-1.1651,-1.1652,-1.1648,-1.1649,-1.1703,-1.1636,-1.1636,-1.1636,-1.1635,0,-1.2324,-1.2306,-1.2218,-1.22,-1.2177,-1.2113,-1.2092,-1.2051,-1.2001,-1.1974,-1.1917,-1.1893,-1.1819,-1.1785,-1.174,-1.1711,-1.1699,-1.1674,-1.1662,-1.1678,-1.1681,-1.1661,-1.1658,-1.1636,-1.1636,-1.1636,-1.1636,0,-1.2393,-1.2334,-1.2298,-1.2221,-1.2201,-1.2188,-1.2122,-1.2102,-1.2057,-1.2024,-1.2012,-1.1941,-1.1899,-1.1838,-1.1778,-1.1747,-1.1724,-1.1705,-1.1743,-1.1735,-1.1745,-1.1744,-1.1787,-1.1789,-1.1722,-1.1723,-1.1724,0,-1.242,-1.2404,-1.2326,-1.2304,-1.227,-1.2235,-1.2206,-1.2142,-1.2114,-1.2049,-1.2037,-1.1991,-1.195,-1.1886,-1.1829,-1.1782,-1.1761,-1.1779,-1.1753,-1.177,-1.176,-1.1761,-1.1759,-1.1785,-1.1786,-1.1787,-1.1788,0,-1.2474,-1.2445,-1.2406,-1.2356,-1.2324,-1.2282,-1.2237,-1.2222,-1.2148,-1.212,-1.2076,-1.2045,-1.1983,-1.1937,-1.1883,-1.1846,-1.1804,-1.1796,-1.1795,-1.1811,-1.1833,-1.182,-1.1758,-1.1795,-1.1795,-1.1794,-1.1794,-1.1793,-1.2521,-1.2504,-1.2446,-1.2404,-1.2364,-1.2324,-1.2301,-1.2253,-1.2215,-1.2159,-1.2124,-1.2082,-1.2026,-1.1949,-1.1914,-1.188,-1.1862,-1.1861,-1.186,-1.1861,-1.1866,-1.184,-1.187,-1.1869,-1.1869,-1.1869,-1.1869,0,-1.2571,-1.253,-1.2493,-1.2432,-1.2399,-1.2363,-1.2312,-1.2286,-1.225,-1.2202,-1.2163,-1.2112,-1.2067,-1.2007,-1.1958,-1.1942,-1.1922,-1.1932,-1.1931,-1.1923,-1.1885,-1.189,-1.1949,-1.1949,-1.1949,-1.1949,-1.1949,-1.1949,-1.2593,-1.2561,-1.2526,-1.2474,-1.2433,-1.2392,-1.2365,-1.2327,-1.2288,-1.2234,-1.2197,-1.2158,-1.2104,-1.2051,-1.2008,-1.1992,-1.1976,-1.1991,-1.1969,-1.1934,-1.1926,-1.1919,-1.1924,-1.1989,-1.1989,-1.201,-1.201,-1.201]},{"header":{"parameterUnit":"m.s-1","parameterCategory":1,"la1":30.2991,"la2":30.254,"lo1":-89.0895,"lo2":-89.0444,"dy":0.0017,"dx":0.0017,"nx":28,"ny":28,"refTime":"2024-06-02T21:00:00:Z","depth":0,"parameterNumber":3,"parameterNumberName":"V-component_of_WINDS"},"data":[0,0,0,0,0,0,0,0,0,0,0,0,0,0,0,0,0,0,0,0,0,0,0,0,0,0,0,0,0,0,0,0,0,0,0,0,0,0,0,0,0,0,0,0,0,0,0,0,0,0,0,0,0,0,0,0,0,0,4.1986,4.1986,0,4.1928,4.1927,4.1926,4.1904,4.1904,4.1904,4.1905,4.1838,4.1836,4.1834,0,0,0,0,0,0,0,0,0,0,0,0,0,4.2075,4.2074,4.1987,4.1986,4.1985,4.1928,4.1927,4.1926,4.1904,4.1904,4.1905,4.1905,4.1839,4.1837,4.1834,0,0,0,0,0,0,0,0,0,0,0,0,0,4.2028,4.2073,4.1987,4.1967,4.1965,4.1928,4.1927,4.1926,4.1904,4.1904,4.1905,4.1905,4.184,4.1837,4.1834,4.181,0,0,4.1825,4.1824,0,0,0,0,0,0,0,0,4.2031,4.2025,4.1971,4.1969,4.1966,4.1924,4.1934,4.1887,4.1904,4.1927,4.1905,4.1905,4.1866,4.1861,4.1849,4.1807,4.1804,4.1825,4.1823,4.1822,4.1821,0,0,0,0,0,0,0,4.2034,4.2028,4.1963,4.197,4.1967,4.196,4.1954,4.1925,4.1895,4.1925,4.1923,4.1917,4.1865,4.1852,4.1847,4.1803,4.1825,4.1822,4.182,4.1819,4.1739,4.1738,0,0,0,0,0,0,4.2042,4.203,4.1965,4.1961,4.2,4.1958,4.1951,4.1937,4.1896,4.189,4.1917,4.1916,4.1857,4.1851,4.1845,4.1815,4.1822,4.1819,4.1817,4.1739,4.1739,4.1738,0,0,0,0,0,0,4.2044,4.2036,4.1967,4.1995,4.1986,4.1956,4.194,4.1935,4.1923,4.1889,4.1884,4.1909,4.1857,4.1849,4.1819,4.1812,4.1818,4.1815,4.174,4.1739,4.1738,4.1754,0,0,0,0,0,0,4.2046,4.2037,4.2028,4.1995,4.1985,4.1944,4.194,4.1934,4.1918,4.1917,4.1881,4.1875,4.1856,4.1824,4.1816,4.1808,4.1813,4.174,4.1739,4.1739,4.1754,4.1754,4.1754,0,0,0,0,0,4.2049,4.2033,4.2028,4.202,4.1974,4.1944,4.1937,4.1918,4.1918,4.1909,4.1887,4.1876,4.1814,4.1821,4.1812,4.1803,4.174,4.174,4.1739,4.1754,4.1754,4.1754,0,0,0,0,0,0,4.2063,4.2029,4.2022,4.1995,4.1973,4.194,4.1928,4.1918,4.1894,4.1893,4.1868,4.186,4.1833,4.1815,4.1823,4.1778,4.1776,4.1774,4.1791,4.1791,4.1791,4.1795,4.181,0,0,0,0,0,4.2064,4.2044,4.2014,4.1993,4.1983,4.1957,4.1943,4.1931,4.1905,4.1895,4.1872,4.1846,4.1821,4.1805,4.178,4.1751,4.1743,4.1741,4.1741,4.1741,4.1739,4.1723,4.1722,4.1735,4.1735,4.1735,0,0,4.2063,4.2042,4.2031,4.1995,4.1977,4.1956,4.1949,4.1927,4.191,4.1891,4.1862,4.1845,4.1814,4.1786,4.1772,4.177,4.1733,4.174,4.174,4.1738,4.1722,4.1721,4.172,4.1735,4.1735,4.1735,0,0,4.2052,4.2034,4.2016,4.1998,4.197,4.1954,4.195,4.1919,4.1907,4.1878,4.1864,4.1843,4.18,4.178,4.1764,4.1747,4.1736,4.1739,4.1739,4.1724,4.1723,4.1722,4.1717,4.1715,4.1738,4.1738,4.1738,0,4.2055,4.2024,4.2007,4.1986,4.1971,4.1955,4.1935,4.1918,4.1883,4.1872,4.1871,4.1818,4.1797,4.1763,4.176,4.1747,4.1741,4.1743,4.1725,4.1724,4.1723,4.1717,4.1715,4.1738,4.1738,4.1738,4.1738,0,4.2029,4.2008,4.1996,4.1966,4.1949,4.1929,4.1907,4.1892,4.1881,4.1864,4.1836,4.181,4.178,4.1771,4.1759,4.1736,4.1736,4.1731,4.1728,4.1722,4.1717,4.1714,4.1739,4.1739,4.1739,4.1739,0,0,4.2023,4.1986,4.1981,4.1968,4.1937,4.192,4.1899,4.1872,4.186,4.1836,4.1818,4.1783,4.1778,4.176,4.1746,4.1733,4.1722,4.1729,4.1728,4.1729,4.1696,4.17,4.1698,4.1715,4.1715,4.1714,4.1699,0,4.2008,4.1973,4.1957,4.1927,4.1908,4.1893,4.1875,4.1854,4.1838,4.1818,4.1799,4.1776,4.1771,4.176,4.1747,4.1726,4.1715,4.1727,4.1696,4.1695,4.1704,4.1695,4.1699,4.1686,4.1696,4.1696,4.1696,0,4.1986,4.1966,4.1935,4.1909,4.19,4.1884,4.1858,4.184,4.1815,4.1805,4.1786,4.1773,4.1749,4.1749,4.1716,4.1725,4.1711,4.1699,4.1698,4.1694,4.1695,4.1691,4.1681,4.1679,4.1692,4.1692,4.1692,0,4.1986,4.195,4.1928,4.1916,4.1885,4.1874,4.186,4.1836,4.1821,4.1799,4.1789,4.1763,4.1748,4.1728,4.1708,4.171,4.1677,4.1675,4.1666,4.1667,4.1659,4.166,4.1647,4.1651,4.1651,4.1651,4.1651,0,4.197,4.1952,4.1928,4.1914,4.1893,4.1874,4.1854,4.1838,4.1818,4.1799,4.1785,4.1768,4.1742,4.1722,4.1706,4.1681,4.1674,4.1664,4.166,4.1666,4.1667,4.1656,4.1656,4.1651,4.1651,4.1651,4.1651,0,4.1966,4.1949,4.1924,4.1897,4.189,4.1875,4.1852,4.1837,4.1822,4.1799,4.1792,4.1767,4.1743,4.1721,4.1687,4.1677,4.1651,4.1646,4.166,4.1658,4.1651,4.1652,4.163,4.1626,4.1633,4.1633,4.1633,0,4.1957,4.1944,4.1916,4.1905,4.1892,4.1872,4.1858,4.1839,4.1825,4.1797,4.1785,4.176,4.1739,4.17,4.1678,4.1653,4.1647,4.1641,4.1642,4.1649,4.1647,4.1648,4.1646,4.1641,4.1641,4.1641,4.1641,0,4.1944,4.1937,4.1918,4.1897,4.1881,4.1863,4.1843,4.1834,4.1812,4.1796,4.1772,4.1756,4.1723,4.1698,4.1671,4.1655,4.1644,4.1641,4.1637,4.1642,4.1651,4.1647,4.166,4.1641,4.1641,4.1641,4.1641,4.1641,4.1937,4.1925,4.1905,4.1884,4.1869,4.1852,4.1837,4.1821,4.1802,4.1775,4.1765,4.1741,4.1717,4.1679,4.1663,4.1643,4.1641,4.1636,4.1635,4.1634,4.1635,4.1656,4.1638,4.1638,4.1638,4.1638,4.1638,0,4.1924,4.191,4.1892,4.1868,4.1852,4.1845,4.1824,4.1811,4.179,4.177,4.1751,4.1724,4.17,4.1677,4.1651,4.1639,4.1634,4.1633,4.1634,4.163,4.1638,4.1644,4.1639,4.1639,4.1639,4.1639,4.1639,4.1639,4.1915,4.1894,4.1884,4.1855,4.1841,4.1819,4.1808,4.1792,4.1776,4.1747,4.1728,4.1714,4.1693,4.1666,4.1644,4.1637,4.1629,4.163,4.1622,4.1629,4.163,4.163,4.1635,4.1628,4.1628,4.1616,4.1616,4.1616]}]]